�N����,����,�~����,�C��,���x,�C��,����,���ϕ���,�ő�u�ԕ���,�ő厞����,���˗�,�I�_���x,�n�����x,�ő啗���N��,DTYPE
"22/06/29","00:10",0.0,27.1,73.2,1006.7,322.0,1.3,2.6,354.1,0.00,21.9,25.1,"00:03:12",1
"22/06/29","00:20",0.0,26.8,73.6,1006.2,302.2,1.0,3.2,238.5,0.00,21.7,25.1,"00:17:20",1
"22/06/29","00:30",0.0,26.9,73.6,1006.2,344.0,0.8,2.5,328.3,0.00,21.8,25.2,"00:20:16",1
"22/06/29","00:40",0.0,26.5,74.4,1006.2,311.8,0.5,1.1,326.2,0.00,21.6,25.0,"00:30:02",1
"22/06/29","00:50",0.0,26.5,75.4,1006.2,334.7,1.1,2.0,336.5,0.00,21.8,24.9,"00:43:04",1
"22/06/29","01:00",0.0,26.4,75.8,1006.2,318.2,0.8,2.2,325.2,0.00,21.8,24.8,"00:51:52",1
"22/06/29","01:10",0.0,26.4,76.4,1006.0,299.2,1.1,2.7,316.2,0.00,22.0,24.9,"01:09:12",1
"22/06/29","01:20",0.0,26.5,76.5,1006.0,308.8,1.3,3.2,329.5,0.00,22.1,24.7,"01:15:44",1
"22/06/29","01:30",0.0,26.5,76.7,1006.0,325.8,2.0,3.2,342.0,0.00,22.1,24.7,"01:22:08",1
"22/06/29","01:40",0.0,26.3,77.4,1006.0,337.6,2.3,3.9,331.2,0.00,22.1,24.9,"01:38:48",1
"22/06/29","01:50",0.0,26.2,78.1,1006.2,340.9,2.6,4.4,330.8,0.00,22.1,24.8,"01:48:24",1
"22/06/29","02:00",0.0,26.2,78.1,1006.0,324.5,1.8,3.6,335.8,0.00,22.1,24.7,"01:54:24",1
"22/06/29","02:10",0.0,26.2,78.2,1006.0,333.7,1.7,3.5,342.8,0.00,22.1,24.9,"02:07:36",1
"22/06/29","02:20",0.0,26.1,78.2,1006.0,336.0,1.6,2.9,351.2,0.00,22.0,24.7,"02:10:24",1
"22/06/29","02:30",0.0,25.9,78.5,1006.0,331.6,1.2,2.2,344.9,0.00,21.9,24.8,"02:25:12",1
"22/06/29","02:40",0.0,25.8,78.8,1006.0,318.0,1.1,2.4,341.8,0.00,21.9,24.8,"02:39:12",1
"22/06/29","02:50",0.0,25.9,79.0,1005.7,316.7,1.3,2.6,347.2,0.00,22.0,24.5,"02:44:56",1
"22/06/29","03:00",0.0,25.9,78.9,1006.0,331.6,1.3,2.7,305.7,0.00,22.0,24.7,"02:53:44",1
"22/06/29","03:10",0.0,25.8,79.2,1006.0,342.1,1.1,1.9,339.9,0.00,22.0,24.7,"03:00:48",1
"22/06/29","03:20",0.0,25.6,80.0,1005.7,341.6,1.2,2.4,358.2,0.00,21.9,24.7,"03:13:04",1
"22/06/29","03:30",0.0,25.4,80.9,1005.7,350.7,1.2,2.2,25.2,0.00,21.9,24.5,"03:22:24",1
"22/06/29","03:40",0.0,25.1,81.3,1005.7,310.4,0.8,2.0,349.1,0.00,21.7,24.6,"03:32:48",1
"22/06/29","03:50",0.0,25.1,81.9,1006.0,308.3,1.0,2.1,337.6,0.00,21.8,24.4,"03:48:48",1
"22/06/29","04:00",0.0,25.2,81.9,1005.7,344.2,0.7,1.3,353.6,0.00,21.9,24.5,"03:59:20",1
"22/06/29","04:10",0.0,25.2,82.0,1006.0,6.2,0.8,2.0,354.4,0.00,21.9,24.4,"04:05:12",1
"22/06/29","04:20",0.0,25.1,82.0,1006.0,26.2,0.3,1.2,347.9,0.00,21.9,24.7,"04:18:24",1
"22/06/29","04:30",0.0,24.9,82.2,1006.0,6.3,0.3,1.0,303.2,0.00,21.7,24.6,"04:23:04",1
"22/06/29","04:40",0.0,25.1,82.5,1005.7,36.9,0.5,1.4,62.8,0.00,21.9,24.4,"04:37:04",1
"22/06/29","04:50",0.0,25.1,82.7,1006.0,351.6,0.6,2.2,341.0,0.00,22.0,24.3,"04:47:36",1
"22/06/29","05:00",0.0,25.2,82.7,1006.4,352.0,1.1,3.5,21.4,0.00,22.1,24.3,"04:54:56",1
"22/06/29","05:10",0.0,25.0,82.8,1006.2,342.9,1.3,2.1,315.0,0.00,21.9,24.3,"05:01:04",1
"22/06/29","05:20",0.0,25.1,83.0,1006.2,9.3,0.8,2.4,357.5,0.00,22.0,24.5,"05:16:08",1
"22/06/29","05:30",0.0,24.9,83.3,1006.2,351.4,1.2,2.5,353.6,0.00,21.9,24.3,"05:26:40",1
"22/06/29","05:40",0.0,25.0,83.6,1006.0,355.7,0.6,1.2,339.3,0.00,22.1,24.2,"05:31:12",1
"22/06/29","05:50",0.0,24.9,83.9,1006.0,354.0,1.0,2.1,355.9,0.00,22.0,24.2,"05:40:40",1
"22/06/29","06:00",0.0,25.0,84.0,1006.2,350.7,1.2,2.1,343.4,0.00,22.1,24.1,"05:55:44",1
"22/06/29","06:10",0.0,24.9,84.5,1006.0,346.6,1.1,1.9,356.6,0.00,22.1,24.1,"06:00:32",1
"22/06/29","06:20",0.0,25.0,85.2,1006.2,354.9,1.1,1.9,357.4,0.01,22.4,24.3,"06:15:04",1
"22/06/29","06:30",0.0,25.5,85.4,1006.2,357.1,1.0,2.0,354.8,0.03,22.9,24.1,"06:25:20",1
"22/06/29","06:40",0.0,26.1,84.8,1006.0,353.4,0.8,1.4,358.3,0.04,23.4,24.2,"06:33:52",1
"22/06/29","06:50",0.0,27.0,83.7,1006.0,28.9,0.5,1.2,1.4,0.06,24.0,24.0,"06:41:04",1
"22/06/29","07:00",0.0,27.5,82.0,1005.5,75.6,0.3,1.3,141.3,0.08,24.2,24.2,"06:57:44",1
"22/06/29","07:10",0.0,28.2,79.6,1005.5,63.0,0.5,1.7,19.6,0.10,24.4,23.9,"07:06:08",1
"22/06/29","07:20",0.0,28.7,75.9,1005.5,7.0,0.8,1.8,8.2,0.11,24.1,24.1,"07:14:56",1
"22/06/29","07:30",0.0,28.9,74.2,1004.8,7.8,1.1,2.0,6.5,0.14,23.9,24.1,"07:20:24",1
"22/06/29","07:40",0.0,29.0,73.5,1004.8,7.6,1.2,2.2,359.1,0.16,23.8,24.1,"07:37:28",1
"22/06/29","07:50",0.0,29.0,72.9,1005.2,10.9,1.1,2.2,25.5,0.14,23.7,24.0,"07:45:12",1
"22/06/29","08:00",0.0,29.5,73.5,1005.2,52.0,0.5,1.2,18.6,0.17,24.3,24.2,"07:54:08",1
"22/06/29","08:10",0.0,29.4,73.6,1005.5,10.0,0.6,1.4,62.7,0.15,24.2,24.2,"08:07:12",1
"22/06/29","08:20",0.0,29.7,72.8,1005.7,32.5,0.6,2.0,358.9,0.20,24.3,24.1,"08:10:02",1
"22/06/29","08:30",0.0,29.5,72.5,1006.0,95.2,0.5,1.6,23.9,0.12,24.1,24.1,"08:28:16",1
"22/06/29","08:40",0.0,29.7,73.8,1005.7,107.2,0.3,1.7,95.0,0.21,24.6,24.2,"08:32:08",1
"22/06/29","08:50",0.0,29.5,71.6,1006.0,51.4,0.7,1.8,36.2,0.14,23.9,24.2,"08:41:36",1
"22/06/29","09:00",0.0,29.3,72.5,1005.5,293.7,0.6,1.7,334.5,0.15,23.9,24.2,"08:50:40",1
"22/06/29","09:10",0.0,29.3,71.7,1005.7,359.8,1.0,2.4,342.9,0.15,23.7,24.2,"09:01:52",1
"22/06/29","09:20",0.0,29.9,71.5,1005.7,58.2,0.5,1.4,1.2,0.16,24.2,24.3,"09:10:08",1
"22/06/29","09:30",0.0,30.8,70.2,1006.0,107.2,0.6,1.3,116.1,0.36,24.8,24.3,"09:29:12",1
"22/06/29","09:40",0.0,30.8,67.1,1006.4,198.5,1.8,4.1,209.1,0.35,24.0,24.2,"09:31:44",1
"22/06/29","09:50",0.0,31.2,65.8,1006.4,186.4,2.3,4.5,179.4,0.43,24.1,24.4,"09:45:52",1
"22/06/29","10:00",0.0,31.6,64.3,1006.7,159.3,2.2,4.4,221.2,0.49,24.1,24.3,"09:53:04",1
"22/06/29","10:10",0.0,31.8,63.3,1006.9,160.9,1.7,4.5,129.4,0.50,24.0,24.5,"10:05:04",1
"22/06/29","10:20",0.0,32.1,61.9,1006.9,172.7,2.2,4.2,173.3,0.54,23.9,24.6,"10:10:40",1
"22/06/29","10:30",0.0,32.1,59.1,1007.1,221.3,1.7,4.7,232.3,0.45,23.1,24.6,"10:24:24",1
"22/06/29","10:40",0.0,32.2,59.4,1007.1,277.1,1.3,2.7,206.1,0.52,23.3,24.8,"10:34:00",1
"22/06/29","10:50",0.0,32.7,58.1,1007.4,213.8,1.5,3.9,226.5,0.51,23.4,24.7,"10:45:44",1
"22/06/29","11:00",0.0,32.6,58.4,1007.4,225.5,2.2,7.2,220.7,0.58,23.4,24.8,"10:53:52",1
"22/06/29","11:10",0.0,32.6,59.3,1007.4,185.7,2.5,4.5,241.9,0.57,23.7,24.8,"11:01:28",1
"22/06/29","11:20",0.0,33.1,58.5,1007.6,216.7,1.8,4.8,227.4,0.58,23.9,24.8,"11:12:24",1
"22/06/29","11:30",0.0,33.2,58.5,1007.8,194.1,1.7,2.9,175.6,0.58,24.0,24.9,"11:22:48",1
"22/06/29","11:40",0.0,33.2,56.9,1007.1,227.1,2.1,6.4,211.6,0.55,23.5,25.0,"11:35:52",1
"22/06/29","11:50",0.0,33.8,57.3,1007.4,166.0,1.5,3.2,155.6,0.60,24.2,25.1,"11:46:32",1
"22/06/29","12:00",0.0,33.8,55.2,1007.6,242.7,1.2,3.2,324.4,0.50,23.6,25.4,"11:56:00",1
"22/06/29","12:10",0.0,33.8,53.1,1007.6,204.7,2.3,4.3,235.1,0.63,23.0,25.3,"12:06:04",1
"22/06/29","12:20",0.0,33.9,54.3,1007.6,176.3,2.0,4.4,180.4,0.60,23.4,25.4,"12:14:16",1
"22/06/29","12:30",0.0,34.1,54.4,1007.4,157.8,1.6,3.7,137.6,0.53,23.6,25.5,"12:28:48",1
"22/06/29","12:40",0.0,34.2,53.4,1007.4,158.8,1.3,3.4,194.1,0.62,23.4,25.5,"12:31:20",1
"22/06/29","12:50",0.0,34.0,50.4,1007.4,182.8,2.5,5.6,219.5,0.52,22.3,25.5,"12:45:12",1
"22/06/29","13:00",0.0,35.0,52.9,1007.1,196.2,1.6,4.0,227.7,0.60,24.0,25.5,"12:54:48",1
"22/06/29","13:10",0.0,34.8,48.7,1007.4,213.1,2.3,4.9,214.5,0.62,22.4,25.8,"13:06:40",1
"22/06/29","13:20",0.0,34.6,47.2,1006.9,220.5,2.0,4.9,231.0,0.62,21.7,25.6,"13:13:20",1
"22/06/29","13:30",0.0,34.8,48.1,1007.1,227.3,2.0,3.7,203.1,0.60,22.2,25.8,"13:25:28",1
"22/06/29","13:40",0.0,34.8,48.3,1007.1,215.4,2.0,4.5,208.7,0.55,22.3,25.9,"13:33:28",1
"22/06/29","13:50",0.0,34.9,45.5,1007.4,320.1,2.1,7.0,353.6,0.58,21.4,25.9,"13:44:40",1
"22/06/29","14:00",0.0,34.7,47.2,1007.4,317.3,2.0,4.8,357.7,0.56,21.8,25.7,"13:55:36",1
"22/06/29","14:10",0.0,34.9,47.1,1007.1,309.6,2.0,5.2,344.2,0.56,22.0,25.9,"14:00:16",1
"22/06/29","14:20",0.0,34.9,45.7,1007.1,283.0,2.0,4.5,352.0,0.55,21.5,25.9,"14:12:08",1
"22/06/29","14:30",0.0,35.1,47.5,1006.7,234.3,1.5,3.6,304.8,0.54,22.3,26.0,"14:21:04",1
"22/06/29","14:40",0.0,35.2,46.0,1007.1,240.7,1.5,3.5,235.5,0.53,21.9,26.1,"14:31:28",1
"22/06/29","14:50",0.0,35.1,46.5,1006.9,215.5,2.0,4.0,222.7,0.51,22.0,26.0,"14:41:52",1
"22/06/29","15:00",0.0,35.2,47.3,1006.7,207.5,1.6,3.6,179.6,0.50,22.3,26.0,"14:59:12",1
"22/06/29","15:10",0.0,34.7,47.3,1006.0,221.4,2.6,5.5,231.5,0.48,21.9,26.0,"15:05:44",1
"22/06/29","15:20",0.0,34.7,47.1,1006.2,234.8,2.3,6.2,232.6,0.46,21.8,26.2,"15:18:16",1
"22/06/29","15:30",0.0,34.6,49.0,1006.2,253.2,2.5,6.0,210.7,0.45,22.4,26.3,"15:22:08",1
"22/06/29","15:40",0.0,34.8,47.4,1006.2,222.5,2.0,4.8,243.6,0.43,22.0,26.5,"15:37:20",1
"22/06/29","15:50",0.0,35.0,47.2,1006.2,225.9,2.0,4.0,246.4,0.41,22.1,26.1,"15:40:32",1
"22/06/29","16:00",0.0,34.8,48.3,1006.0,217.4,2.1,5.5,222.1,0.39,22.3,26.4,"15:52:24",1
"22/06/29","16:10",0.0,34.7,48.9,1006.4,226.0,1.6,4.3,204.1,0.36,22.4,26.2,"16:09:52",1
"22/06/29","16:20",0.0,34.3,49.6,1006.0,236.9,2.7,5.8,226.3,0.34,22.3,26.2,"16:13:20",1
"22/06/29","16:30",0.0,33.9,50.0,1006.2,225.5,3.1,8.1,202.0,0.32,22.1,26.4,"16:29:36",1
"22/06/29","16:40",0.0,34.1,52.6,1006.0,197.4,2.7,5.9,219.8,0.30,23.1,26.4,"16:30:32",1
"22/06/29","16:50",0.0,34.2,50.1,1006.0,218.9,2.0,4.7,234.2,0.28,22.4,26.5,"16:41:36",1
"22/06/29","17:00",0.0,34.3,52.1,1006.2,205.7,1.5,3.9,187.5,0.25,23.1,26.5,"16:57:20",1
"22/06/29","17:10",0.0,33.7,50.8,1006.2,230.3,2.1,6.3,200.8,0.23,22.1,26.5,"17:06:08",1
"22/06/29","17:20",0.0,33.5,52.3,1006.0,226.4,2.3,4.9,235.2,0.12,22.4,26.5,"17:17:52",1
"22/06/29","17:30",0.0,33.2,52.3,1006.0,214.4,2.3,5.6,222.1,0.01,22.2,26.7,"17:26:40",1
"22/06/29","17:40",0.0,33.0,54.1,1005.7,202.1,2.1,5.0,190.1,0.01,22.5,26.7,"17:38:00",1
"22/06/29","17:50",0.0,32.7,55.0,1005.7,184.6,2.3,3.9,173.0,0.01,22.5,26.6,"17:41:28",1
"22/06/29","18:00",0.0,33.2,53.4,1005.7,203.1,0.8,2.7,178.8,0.00,22.5,26.7,"17:50:16",1
"22/06/29","18:10",0.0,32.5,55.2,1005.7,178.6,2.2,4.5,196.6,0.00,22.4,26.4,"18:03:52",1
"22/06/29","18:20",0.0,31.9,56.9,1005.7,181.4,2.5,4.2,197.6,0.00,22.3,26.5,"18:18:24",1
"22/06/29","18:30",0.0,31.6,58.3,1005.5,176.2,2.5,4.4,179.1,0.00,22.5,26.6,"18:27:04",1
"22/06/29","18:40",0.0,31.3,59.2,1005.2,184.6,2.3,4.7,180.1,0.01,22.4,26.7,"18:35:28",1
"22/06/29","18:50",0.0,31.1,60.0,1005.7,164.8,1.5,3.1,196.5,0.02,22.5,26.6,"18:45:44",1
"22/06/29","19:00",0.0,31.1,59.6,1005.5,174.3,1.0,3.4,235.2,0.01,22.3,26.5,"18:51:44",1
"22/06/29","19:10",0.0,31.2,58.9,1005.5,55.0,1.0,2.5,244.7,0.00,22.2,26.6,"19:00:24",1
"22/06/29","19:20",0.0,30.8,59.1,1005.5,77.9,1.2,3.4,356.6,0.00,21.9,26.4,"19:17:36",1
"22/06/29","19:30",0.0,30.4,60.0,1005.0,344.9,1.5,3.4,344.3,0.00,21.8,26.4,"19:26:56",1
"22/06/29","19:40",0.0,30.1,63.0,1004.5,330.9,1.2,2.9,345.8,0.00,22.3,26.4,"19:32:48",1
"22/06/29","19:50",0.0,29.4,65.4,1004.5,20.4,0.5,1.0,59.2,0.00,22.3,26.4,"19:46:00",1
"22/06/29","20:00",0.0,28.7,66.9,1004.1,293.5,0.5,1.6,307.8,0.00,22.0,26.4,"19:58:56",1
"22/06/29","20:10",0.0,28.4,66.9,1004.3,330.3,1.3,3.4,319.3,0.00,21.7,26.3,"20:09:04",1
"22/06/29","20:20",0.0,28.6,66.4,1004.8,334.0,2.1,4.0,349.0,0.00,21.8,26.3,"20:13:28",1
"22/06/29","20:30",0.0,28.7,65.6,1004.8,315.8,1.6,4.0,320.1,0.00,21.7,26.2,"20:22:16",1
"22/06/29","20:40",0.0,28.6,65.7,1005.2,296.1,1.2,2.6,336.8,0.00,21.6,26.2,"20:33:28",1
"22/06/29","20:50",0.0,28.4,66.6,1005.5,297.1,1.1,2.1,330.9,0.00,21.6,26.1,"20:44:16",1
"22/06/29","21:00",0.0,27.9,68.0,1005.2,320.5,1.3,2.4,333.2,0.00,21.5,26.1,"20:53:44",1
"22/06/29","21:10",0.0,27.5,69.7,1005.7,325.4,1.6,2.5,345.5,0.00,21.5,26.1,"21:00:40",1
"22/06/29","21:20",0.0,27.0,72.0,1005.7,322.6,1.3,2.2,345.4,0.00,21.6,26.0,"21:17:28",1
"22/06/29","21:30",0.0,26.9,72.7,1006.4,314.6,1.5,2.9,334.1,0.00,21.6,25.9,"21:20:24",1
"22/06/29","21:40",0.0,26.8,72.8,1006.0,322.9,1.3,2.6,333.2,0.00,21.5,25.9,"21:39:36",1
"22/06/29","21:50",0.0,26.8,72.8,1006.2,310.3,1.1,1.9,331.8,0.00,21.5,26.1,"21:44:40",1
"22/06/29","22:00",0.0,26.6,73.5,1006.4,321.6,0.6,1.6,33.3,0.00,21.5,25.8,"21:54:56",1
"22/06/29","22:10",0.0,26.1,74.3,1006.7,308.2,0.5,1.1,337.2,0.00,21.2,25.8,"22:02:16",1
"22/06/29","22:20",0.0,25.9,75.9,1006.7,340.8,1.0,1.7,344.8,0.00,21.4,25.7,"22:14:40",1
"22/06/29","22:30",0.0,25.7,76.8,1006.9,307.7,0.7,1.2,347.8,0.00,21.4,25.7,"22:20:24",1
"22/06/29","22:40",0.0,25.6,77.4,1006.9,292.4,0.7,1.9,295.4,0.00,21.4,25.7,"22:38:00",1
"22/06/29","22:50",0.0,25.8,78.1,1006.9,314.7,1.0,2.5,346.0,0.00,21.7,25.7,"22:49:28",1
"22/06/29","23:00",0.0,26.2,77.6,1006.9,339.5,1.8,3.6,342.2,0.00,22.0,25.5,"22:58:56",1
"22/06/29","23:10",0.0,26.8,75.7,1006.9,341.8,3.0,5.1,336.6,0.00,22.2,25.7,"23:02:00",1
"22/06/29","23:20",0.0,26.8,74.9,1007.1,341.2,1.8,4.0,24.8,0.00,22.0,25.6,"23:16:56",1
"22/06/29","23:30",0.0,26.8,75.0,1007.1,29.0,0.7,2.4,1.3,0.00,22.0,25.5,"23:22:08",1
"22/06/29","23:40",0.0,26.7,75.7,1007.4,66.2,0.6,1.2,98.9,0.00,22.1,25.3,"23:36:24",1
"22/06/29","23:50",0.0,26.4,76.6,1007.4,349.9,1.0,1.9,2.1,0.00,22.0,25.5,"23:43:52",1
"22/06/29","24:00",0.0,26.0,77.7,1007.1,346.0,0.7,1.4,325.2,0.00,21.8,25.3,"23:51:04",1
